UR5WGN-5 Lvivska UA current weather conditions

sailwx.info

Wind from 067 at 6 knots gusting 6

Air temperature -5.0° C
Dewpoint -7.4° C

Last reported at 2019-Jan-23 00:59 UTC.
Time now 2019-Jan-23 01:48 UTC

Location: N 49°30' E 023°12'.
View on Google Maps.

See reports from other nearby stations

  
Tides and Currents Weather Stations Pressure Air Temp Water Temp Dewpoint Dewpoint Depression Visibility Wind Speed Wind Dir Waves Ship Positions
date/time (UTC)wind fromknots sea level pressurealtimeterstation pressurevisibilityair tempwater tempwave heightnotes
2019-Jan-23 00:59 067 6 gusting 6 -5.0
2019-Jan-23 00:44 112 2 gusting 5 -4.4
2019-Jan-23 00:29 112 3 gusting 5 -4.4
2019-Jan-23 00:16 112 5 gusting 5 -4.4
2019-Jan-22 23:59 157 3 gusting 6 -4.4
2019-Jan-22 23:44 112 -4.4
2019-Jan-22 23:29 135 4 gusting 5 -4.4
2019-Jan-22 23:14 135 -4.4
2019-Jan-22 22:59 112 4 gusting 5 -4.4
2019-Jan-22 22:44 157 -4.4
2019-Jan-22 22:29 157 -4.4
2019-Jan-22 22:14 112 1 gusting 7 -4.4
2019-Jan-22 21:51 090 -4.4
2019-Jan-22 21:11 090 7 gusting 8 -4.4
2019-Jan-22 20:56 135 3 gusting 7 -4.4
2019-Jan-22 20:41 112 -4.4
2019-Jan-22 20:26 112 -4.4
2019-Jan-22 20:11 112 2 gusting 5 -4.4
2019-Jan-22 19:56 090 -4.4
2019-Jan-22 19:41 135 -4.4
2019-Jan-22 19:26 135 -4.4
2019-Jan-22 19:11 090 -4.4
2019-Jan-22 18:56 112 5 gusting 6 -4.4
2019-Jan-22 18:41 112 -4.4
2019-Jan-22 18:26 180 4 gusting 5 -4.4
2019-Jan-22 18:11 090 3 gusting 6 -4.4
2019-Jan-22 17:56 112 2 gusting 5 -4.4
2019-Jan-22 17:41 090 -4.4
2019-Jan-22 17:26 112 6 gusting 6 -4.4
2019-Jan-22 17:11 112 5 gusting 5 -4.4
2019-Jan-22 16:56 112 -4.4
2019-Jan-22 16:41 112 2 gusting 5 -4.4
2019-Jan-22 16:26 090 2 gusting 6 -4.4
2019-Jan-22 16:11 135 -4.4
2019-Jan-22 15:56 067 1 gusting 5 -4.4
2019-Jan-22 15:41 067 1 gusting 2 -4.4
2019-Jan-22 15:26 112 -4.4
2019-Jan-22 15:11 067 5 gusting 6 -3.9
2019-Jan-22 14:56 112 4 gusting 5 -3.9
2019-Jan-22 14:40 135 -3.9
2019-Jan-22 14:25 112 -3.9
2019-Jan-22 14:10 112 2 gusting 2 -3.9
2019-Jan-22 13:55 135 4 gusting 4 -3.9
2019-Jan-22 13:40 135 -3.9
2019-Jan-22 13:25 090 -3.3
2019-Jan-22 13:10 135 1 gusting 4 -3.3
2019-Jan-22 12:55 135 3 gusting 5 -3.3
2019-Jan-22 12:40 135 -3.3
2019-Jan-22 12:25 112 5 gusting 6 -3.3
2019-Jan-22 12:10 135 5 gusting 5 -3.3
2019-Jan-22 11:55 090 -3.9
2019-Jan-22 11:40 135 0 gusting 5 -3.9
2019-Jan-22 11:25 135 -3.9
2019-Jan-22 11:10 067 1 gusting 5 -4.4
2019-Jan-22 10:55 135 6 gusting 8 -4.4
2019-Jan-22 10:40 135 -4.4
2019-Jan-22 10:25 157 -5.0
2019-Jan-22 10:10 112 6 gusting 6 -5.0
2019-Jan-22 09:55 202 -5.0
2019-Jan-22 09:40 135 -5.6
2019-Jan-22 09:25 067 3 gusting 5 -5.6
2019-Jan-22 09:10 090 2 gusting 5 -5.6
2019-Jan-22 08:55 112 -5.6
2019-Jan-22 08:40 112 -5.6
2019-Jan-22 08:25 135 -6.1
2019-Jan-22 08:10 157 -6.1
2019-Jan-22 07:55 135 -6.7
2019-Jan-22 07:40 202 -6.7
2019-Jan-22 07:25 112 -6.7
2019-Jan-22 07:10 135 -7.2
2019-Jan-22 06:55 135 -7.8
2019-Jan-22 06:40 157 -8.3
2019-Jan-22 06:25 157 -8.9
2019-Jan-22 06:10 157 -9.4
2019-Jan-22 05:55 157 -10.0
2019-Jan-22 05:40 157 -10.6
2019-Jan-22 05:25 157 -10.6
2019-Jan-22 05:10 157 -10.6
2019-Jan-22 04:55 157 -10.6
2019-Jan-22 04:40 157 -10.6
2019-Jan-22 04:25 157 -10.6
2019-Jan-22 04:10 157 -10.0
2019-Jan-22 03:55 157 -10.0
2019-Jan-22 03:40 157 -10.0
2019-Jan-22 03:25 157 -10.0
2019-Jan-22 03:10 157 -9.4
2019-Jan-22 02:55 157 -9.4
2019-Jan-22 02:40 157 -9.4
2019-Jan-22 02:25 157 -8.9
2019-Jan-22 02:10 157 -8.9
2019-Jan-22 01:55 157 -8.9
2019-Jan-22 01:40 157 -8.9
2019-Jan-22 01:25 157 -8.9
2019-Jan-22 01:10 157 -8.9
2019-Jan-22 00:40 135 -8.3
2019-Jan-22 00:25 135 -8.3
2019-Jan-22 00:10 135 -7.8
2019-Jan-21 23:55 157 -7.8
2019-Jan-21 23:40 157 -7.8
2019-Jan-21 23:25 180 -7.8
2019-Jan-21 23:10 180 -7.8
2019-Jan-21 22:46 180 -7.2
2019-Jan-21 22:31 180 -7.2
2019-Jan-21 22:16 157 -7.2
2019-Jan-21 22:01 157 -6.7
2019-Jan-21 21:46 180 -6.7
2019-Jan-21 21:31 157 -6.7
2019-Jan-21 21:16 180 -6.1
2019-Jan-21 21:01 180 -6.1
2019-Jan-21 20:46 180 -5.6
2019-Jan-21 20:31 157 -5.6
2019-Jan-21 20:16 180 -5.0
2019-Jan-21 20:01 180 -5.0
2019-Jan-21 19:46 157 -4.4
2019-Jan-21 19:31 157 -3.9
2019-Jan-21 19:16 157 -3.3
2019-Jan-21 19:01 135 -3.3
2019-Jan-21 18:46 135 -3.3
2019-Jan-21 18:31 135 -3.3
2019-Jan-21 18:16 135 -3.3
2019-Jan-21 18:01 180 -2.8
2019-Jan-21 17:46 157 -2.8
2019-Jan-21 17:31 180 -2.8
2019-Jan-21 17:16 180 -2.8
2019-Jan-21 17:00 225 -2.8
2019-Jan-21 16:45 225 -2.8
2019-Jan-21 16:30 225 -2.8
2019-Jan-21 16:15 225 -2.8
2019-Jan-21 16:00 225 -3.3
2019-Jan-21 15:45 225 -3.3
2019-Jan-21 15:30 225 -3.3
2019-Jan-21 15:15 225 -3.3
2019-Jan-21 15:00 225 -3.3
2019-Jan-21 14:45 225 -2.8
2019-Jan-21 14:30 225 -2.2
2019-Jan-21 14:15 225 -1.7
2019-Jan-21 14:00 225 -1.7
2019-Jan-21 13:45 225 -1.7
2019-Jan-21 13:30 225 -1.1
2019-Jan-21 13:15 225 -1.1
2019-Jan-21 13:00 225 -1.1
2019-Jan-21 12:45 225 -1.7
2019-Jan-21 12:30 225 -1.1
2019-Jan-21 12:15 225 -1.1
2019-Jan-21 12:00 225 -1.7
2019-Jan-21 11:45 225 -1.1
2019-Jan-21 11:30 225 -1.1
2019-Jan-21 11:15 225 -1.1
2019-Jan-21 11:00 225 -1.1
2019-Jan-21 10:45 225 -1.1
2019-Jan-21 10:30 225 -1.7
2019-Jan-21 10:15 225 -1.7
2019-Jan-21 10:00 225 -1.7
2019-Jan-21 09:45 225 -2.2
2019-Jan-21 09:30 247 -2.2
2019-Jan-21 09:15 270 -2.8
2019-Jan-21 09:00 270 -3.3
2019-Jan-21 08:45 270 -3.3
2019-Jan-21 08:30 270 -3.9
2019-Jan-21 08:15 270 -3.9
2019-Jan-21 08:00 270 -3.9
2019-Jan-21 07:45 270 -3.9
2019-Jan-21 07:30 -3.9
2019-Jan-21 07:15 292 -4.4
2019-Jan-21 07:00 315 -4.4
2019-Jan-21 06:45 022 -4.4
2019-Jan-21 06:30 045 -4.4
2019-Jan-21 06:15 292 -4.4
2019-Jan-21 06:00 -4.4
2019-Jan-21 05:45 -4.4
2019-Jan-21 05:30 315 -4.4
2019-Jan-21 05:15 022 -4.4
2019-Jan-21 05:00 -4.4
2019-Jan-21 04:45 -4.4
2019-Jan-21 04:30 022 -4.4
2019-Jan-21 04:15 -4.4
2019-Jan-21 04:00 022 -4.4
2019-Jan-21 03:45 292 2 gusting 5 -4.4
2019-Jan-21 03:30 315 -4.4
2019-Jan-21 03:15 337 -4.4
2019-Jan-21 03:00 337 -4.4
2019-Jan-21 02:45 292 -4.4
2019-Jan-21 02:30 337 -4.4
2019-Jan-21 02:15 -4.4
2019-Jan-21 02:00 -4.4
2019-Jan-21 01:45 022 -3.9
2019-Jan-21 01:30 337 -3.9
2019-Jan-21 01:15 022 -3.9
2019-Jan-21 01:00 022 -3.9